EW9437 Weather Reports


time (UTC)temp
C
wind
direction
speed
KPH
gust
KPH
rain 1hr
cm
rain 24hr
cm
rain mn
cm
humidity
%
barometer
mb
20260507140026 12 352 0.0 0.0 0.00 0.00 0.00 94 1016.2
20260507134524 11 353 0.0 0.0 0.00 0.00 0.00 94 1016.2
20260507133022 11 352 0.0 0.0 0.00 0.00 0.00 94 1016.2
20260507131520 11 352 0.0 0.0 0.00 0.00 0.00 94 1016.2
20260507130018 11 352 0.0 0.0 0.00 0.00 0.00 94 1016.1
20260507124517 11 349 0.0 0.0 0.00 0.00 0.00 94 1015.8
20260507123016 11 349 0.0 0.0 0.00 0.00 0.00 93 1015.6
20260507121515 12 349 0.0 0.0 0.00 0.00 0.00 93 1015.6
20260507120013 12 349 0.0 0.0 0.00 0.00 0.00 93 1015.6
20260507114511 12 349 0.0 0.0 0.00 0.00 0.00 93 1015.8
20260507113013 12 349 0.0 0.0 0.00 0.00 0.00 93 1015.6
20260507111509 12 349 0.0 0.0 0.00 0.00 0.00 93 1016.0
20260507110007 12 349 0.0 0.0 0.00 0.00 0.00 93 1015.9
20260507104509 12 349 0.0 0.0 0.00 0.00 0.00 92 1016.0
20260507103004 12 349 0.0 0.0 0.00 0.00 0.00 92 1016.1
20260507101502 12 349 0.0 0.0 0.00 0.00 0.00 92 1016.2
20260507100100 12 349 0.0 0.0 0.00 0.00 0.00 91 1016.3
20260507094558 12 349 0.0 0.0 0.00 0.00 0.00 91 1016.4
20260507093100 12 349 0.0 0.0 0.00 0.00 0.00 91 1016.4
20260507091558 12 348 0.0 0.0 0.00 0.00 0.00 91 1016.6
20260507090051 12 348 0.0 0.0 0.00 0.00 0.00 91 1016.9
20260507084550 12 348 0.0 0.0 0.00 0.00 0.00 91 1017.0
20260507083049 12 348 0.0 0.0 0.00 0.00 0.00 90 1017.1
20260507081544 12 348 0.0 0.0 0.00 0.00 0.00 90 1017.2
20260507080045 12 348 0.0 0.0 0.00 0.00 0.00 90 1017.2
20260507074542 12 348 0.0 0.0 0.00 0.00 0.00 88 1017.2
20260507073040 12 348 0.0 0.0 0.00 0.00 0.00 89 1017.2
20260507071538 12 348 0.0 0.0 0.00 0.00 0.00 90 1017.2
20260507070036 12 348 0.0 0.0 0.00 0.00 0.00 90 1017.3
20260507064535 13 348 0.0 1.6 0.00 0.00 0.00 89 1017.5
20260507063044 13 348 0.0 3.2 0.00 0.00 0.00 89 1017.6
20260507061535 13 348 0.0 3.2 0.00 0.00 0.00 89 1017.7
20260507060047 13 347 0.0 0.0 0.00 0.00 0.00 88 1017.6
20260507054544 13 347 0.0 0.0 0.00 0.00 0.00 87 1017.4
20260507053031 13 347 0.0 0.0 0.00 0.00 0.00 87 1017.4
20260507051532 13 336 0.0 3.2 0.00 0.00 0.00 88 1017.6
20260507050031 13 336 0.0 0.0 0.00 0.00 0.00 88 1017.5
20260507044547 13 336 0.0 1.6 0.00 0.00 0.00 87 1017.6
20260507043030 13 336 0.0 3.2 0.00 0.00 0.00 86 1017.5
20260507041529 14 337 1.6 4.8 0.00 0.00 0.00 85 1017.4
20260507040033 14 337 1.6 4.8 0.00 0.00 0.00 82 1017.4
20260507034534 14 337 0.0 1.6 0.00 0.00 0.00 80 1017.3
20260507033028 15 337 0.0 1.6 0.00 0.00 0.00 80 1017.1
20260507031528 15 337 0.0 4.8 0.00 0.00 0.00 79 1016.9
20260507030028 15 331 0.0 3.2 0.00 0.00 0.00 79 1016.9
20260507024527 16 331 1.6 6.4 0.00 0.00 0.00 78 1016.8
20260507023027 16 277 1.6 6.4 0.00 0.00 0.00 77 1016.7
20260507021529 17 261 4.8 11.3 0.00 0.00 0.00 75 1016.6
20260507020037 17 272 4.8 11.3 0.00 0.00 0.00 74 1016.6
20260507014525 18 290 4.8 14.5 0.00 0.00 0.00 73 1016.5
20260507013024 18 267 4.8 11.3 0.00 0.00 0.00 71 1016.4
20260507011524 18 243 3.2 14.5 0.00 0.00 0.00 70 1016.4
20260507010028 19 231 6.4 11.3 0.00 0.00 0.00 69 1016.3
20260507004529 19 238 9.7 14.5 0.00 0.00 0.00 67 1016.3
20260507003027 19 235 6.4 16.1 0.00 0.00 0.00 66 1016.3
20260507001524 20 283 8.0 14.5 0.00 0.00 0.00 64 1016.2
20260507000018 20 309 6.4 17.7 0.00 0.00 0.00 66 1016.1
20260506234516 20 293 3.2 14.5 0.00 0.00 0.00 67 1016.0
20260506233014 20 7 6.4 16.1 0.00 0.00 0.00 67 1016.0
20260506231514 20 265 8.0 16.1 0.00 0.00 0.00 66 1016.0
20260506230010 21 314 8.0 16.1 0.00 0.00 0.00 65 1016.2
20260506224509 21 268 4.8 16.1 0.00 0.00 0.00 65 1016.2
20260506223006 20 216 4.8 17.7 0.00 0.00 0.00 66 1016.3
20260506221603 20 290 9.7 17.7 0.00 0.00 0.00 66 1016.4
20260506220105 21 279 6.4 16.1 0.00 0.00 0.00 65 1016.5
20260506214610 21 269 8.0 16.1 0.00 0.00 0.00 63 1016.6
20260506213055 21 237 6.4 16.1 0.00 0.00 0.00 64 1016.9
20260506211554 21 265 8.0 17.7 0.00 0.00 0.00 65 1016.9
20260506210053 21 270 9.7 20.9 0.00 0.00 0.00 66 1016.8
20260506204551 21 283 8.0 17.7 0.00 0.00 0.00 65 1016.9
20260506203051 21 260 9.7 20.9 0.00 0.00 0.00 64 1017.1
20260506201543 21 280 9.7 17.7 0.00 0.00 0.00 65 1017.1
20260506200040 21 236 11.3 22.5 0.00 0.00 0.00 63 1017.0
20260506194543 21 290 8.0 16.1 0.00 0.00 0.00 63 1017.5
20260506193034 20 243 4.8 16.1 0.00 0.00 0.00 63 1017.6
20260506191534 21 268 4.8 12.9 0.00 0.00 0.00 62 1017.7
20260506190025 20 272 4.8 9.7 0.00 0.00 0.00 62 1017.9
20260506184527 20 65 3.2 12.9 0.00 0.00 0.00 63 1018.1
20260506183017 20 289 1.6 14.5 0.00 0.00 0.00 64 1018.2
20260506181513 18 356 3.2 16.1 0.00 0.00 0.00 65 1018.4
20260506180015 18 270 3.2 14.5 0.00 0.00 0.00 65 1018.5
20260506174505 17 253 0.0 0.0 0.00 0.00 0.00 67 1018.5
20260506173002 17 345 0.0 0.0 0.00 0.00 0.00 68 1018.7
20260506171604 16 334 0.0 0.0 0.00 0.00 0.00 69 1018.9
20260506170057 16 274 0.0 0.0 0.00 0.00 0.00 72 1018.7
20260506164555 15 350 0.0 0.0 0.00 0.00 0.00 76 1018.7
20260506163048 15 244 0.0 0.0 0.00 0.00 0.00 77 1018.7
20260506161541 15 280 0.0 0.0 0.00 0.00 0.00 78 1018.6
20260506160037 14 360 0.0 0.0 0.00 0.00 0.00 81 1018.7
20260506154532 13 280 0.0 0.0 0.00 0.13 0.00 84 1018.6
20260506153029 12 229 0.0 0.0 0.00 0.13 0.00 85 1018.6
20260506151533 12 260 0.0 0.0 0.00 0.13 0.00 87 1018.6
20260506150024 12 259 0.0 0.0 0.00 0.13 0.00 87 1018.5
20260506144522 11 206 0.0 0.0 0.00 0.15 0.00 88 1018.6
20260506143020 11 206 0.0 0.0 0.00 0.15 0.00 89 1018.4
20260506141517 11 252 0.0 0.0 0.00 0.15 0.00 90 1018.3